Location: Ellingshausen
(50.5460°N, 10.4723°E)
Time: 14:50:45
(UTC+00:00)

IRS-1D - Pass Details

Date: 18 January 2026
Orbit: 737 x 810 km, 98.8° (Epoch: 15 February)

Event Time Altitude Azimuth Distance (km) Brightness Sun altitude
Rises 05:15:45 0° 11° (N) 3,335 6.8 -17.7°
Reaches altitude 10° 05:18:10 10° 6° (N) 2,405 6.0 -17.3°
Maximum altitude 05:23:15 48° 294° (WNW) 1,050 3.8 -16.5°
Drops below altitude 10° 05:28:20 10° 221° (SW) 2,390 5.8 -15.7°
Sets 05:30:43 0° 216° (SW) 3,313 6.6 -15.4°
